Location: Gombori
(14.9797°N, 2.9419°W)
Time: 19:57:36
(UTC+00:00)

METEOR 2-17 DEB - Pass Details

Date: 07 June 2022
Orbit: 896 x 935 km, 82.5° (Epoch: 02 July)

Event Time Altitude Azimuth Distance (km) Brightness Sun altitude
Rises 21:05:12 0° 348° (NNW) 3,503 ? -30.9°
Reaches altitude 10° 21:07:42 10° 343° (NNW) 2,562 ? -31.4°
Maximum altitude 21:13:21 54° 268° (W) 1,077 ? -32.4°
Enters shadow 21:13:21 54° 268° (W) 1,077 ? -32.4°
